Weather History for Ostrava, Czech Republic

Change the Weather History Date:

Monday, February 3, 2014

  Actual Average (EPKT) Record (EPKT)
Temperature  
Mean Temperature 36 °F -  
Max Temperature 44 °F 38 °F 59 °F (2002)
Min Temperature 28 °F 26 °F -16 °F (2012)
Degree Days  
Heating Degree Days 29    
Moisture  
Dew Point 24 °F    
Average Humidity 62    
Maximum Humidity 86    
Minimum Humidity 27    
Precipitation  
Precipitation 0.00 in 0.04 in - ()
Sea Level Pressure  
Sea Level Pressure 30.17 in    
Wind  
Wind Speed 8 mph ()    
Max Wind Speed 14 mph    
Max Gust Speed -    
Visibility 13.8 miles    
Events      
Averages and records for this station are not official NWS values.
T = Trace of Precipitation, MM = Missing Value Source: Averaged Metar Reports

Daily Weather History Graph

Daily Weather History Graph

Search for Another Location

Airport:

Trip Planner

Search our weather history database for the weather conditions in past years. The results will help you decide how hot, cold, wet, or windy it might be!

Date:

Astronomy

Feb. 03, 2014 Rise Set
Actual Time 7:17 AM CET 4:45 PM CET
Civil Twilight 6:43 AM CET 5:20 PM CET
Nautical Twilight 6:04 AM CET 5:58 PM CET
Astronomical Twilight 5:27 AM CET 6:36 PM CET
Moon 8:42 AM CET (2/3) 9:47 PM CET (2/3)
Length of Visible Light 10h 37m
Length of Day
9h 28m
Waxing Crescent, 17% of the Moon is Illuminated
Feb 3
Waxing Crescent
Feb 6
First Quarter
Feb 15
Full
Feb 22
Last Quarter
Mar 1
New

Hourly Weather History & Observations

Time (CET) Temp. Windchill Dew Point Humidity Pressure Visibility Wind Dir Wind Speed Gust Speed Precip Events Conditions
12:00 AM 33 °F - 26 °F 66% 30.22 in 12 mi WSW 11.2 mph - -   Overcast
12:00 AM 32.0 °F 23.6 °F 26.6 °F 80% 30.15 in - West 10.4 mph - N/A   Clear
12:30 AM 32.0 °F 23.0 °F 26.6 °F 80% 30.15 in - WSW 11.5 mph - N/A   Clear
1:00 AM 32 °F - 26 °F 71% 30.24 in 12 mi WSW 11.2 mph - -   Overcast
1:00 AM 32.0 °F 23.6 °F 26.6 °F 80% 30.18 in - WSW 10.4 mph - N/A   Clear
1:30 AM 32.0 °F 23.6 °F 26.6 °F 80% 30.18 in - WSW 10.4 mph - N/A   Clear
2:00 AM 31 °F - 26 °F 72% 30.25 in 12 mi WSW 8.9 mph - -   Mostly Cloudy
2:00 AM 32.0 °F 24.2 °F 26.6 °F 80% 30.18 in - WSW 9.2 mph - N/A   Clear
2:30 AM 30.2 °F 23.4 °F 24.8 °F 80% 30.18 in - West 6.9 mph - N/A   Clear
3:00 AM 30.2 °F 22.6 °F 26.6 °F 86% 30.18 in - WSW 8.1 mph - N/A   Clear
3:14 AM 31 °F - 26 °F 72% 30.25 in 12 mi WSW 8.9 mph - -   Mostly Cloudy
3:30 AM 30.2 °F 26.7 °F 26.6 °F 86% 30.18 in - SSW 3.5 mph - N/A   Clear
4:00 AM 31 °F - 24 °F 66% 30.26 in 12 mi 4.5 mph - -   Mostly Cloudy
4:00 AM 32.0 °F 27.5 °F 24.8 °F 75% 30.21 in - South 4.6 mph - N/A   Clear
4:30 AM 30.2 °F 26.7 °F 23.0 °F 75% 30.21 in - ENE 3.5 mph - N/A   Clear
5:00 AM 32 °F - 22 °F 57% 30.26 in 12 mi 2.2 mph - -   Mostly Cloudy
5:00 AM 32.0 °F - 23.0 °F 69% 30.21 in - Variable 2.3 mph - N/A   Clear
5:30 AM 30.2 °F - 24.8 °F 80% 30.21 in - Variable 1.2 mph - N/A   Clear
6:00 AM 30 °F - 24 °F 70% 30.27 in 12 mi 4.5 mph - -   Partly Cloudy
6:00 AM 30.2 °F - 24.8 °F 80% 30.21 in - Variable 2.3 mph - N/A   Clear
6:30 AM 30.2 °F - 23.0 °F 75% 30.21 in - Calm Calm - N/A   Clear
7:00 AM 33 °F - 23 °F 55% 30.26 in 25 mi SW 6.7 mph - -   Partly Cloudy
7:00 AM 32.0 °F 28.7 °F 23.0 °F 69% 30.21 in - SSW 3.5 mph - N/A   Clear
7:30 AM 32.0 °F 22.5 °F 23.0 °F 69% 30.18 in - SW 12.7 mph - N/A   Clear
8:00 AM 35 °F - 22 °F 47% 30.26 in 31 mi WSW 13.4 mph - -   Partly Cloudy
8:00 AM 35.6 °F 26.6 °F 23.0 °F 60% 30.21 in - WSW 13.8 mph - N/A   Clear
8:30 AM 35.6 °F 27.5 °F 23.0 °F 60% 30.21 in - WSW 11.5 mph - N/A   Clear
9:00 AM 36 °F - 24 °F 50% 30.25 in 28 mi WNW 8.9 mph - -   Clear
9:00 AM 35.6 °F 28.0 °F 24.8 °F 65% 30.21 in - WNW 10.4 mph - N/A   Clear
9:30 AM 37.4 °F 30.8 °F 24.8 °F 60% 30.21 in - West 9.2 mph - N/A   Clear
10:00 AM 38 °F - 25 °F 47% 30.25 in 28 mi WSW 11.2 mph - -   Clear
10:00 AM 37.4 °F 30.3 °F 24.8 °F 60% 30.18 in - WSW 10.4 mph - N/A   Clear
10:30 AM 39.2 °F 32.0 °F 24.8 °F 56% 30.18 in - WSW 11.5 mph - N/A   Clear
11:00 AM 40 °F - 26 °F 45% 30.23 in 28 mi WSW 11.2 mph - -   Clear
11:00 AM 39.2 °F 32.0 °F 26.6 °F 61% 30.18 in - WSW 11.5 mph - N/A   Clear
11:30 AM 41.0 °F 33.9 °F 24.8 °F 53% 30.18 in - WSW 12.7 mph - N/A   Clear
12:00 PM 44 °F - 23 °F 30% 30.21 in 28 mi East 8.9 mph - -   Clear
12:00 PM 42.8 °F 37.5 °F 23.0 °F 46% 30.15 in - ESE 9.2 mph - N/A   Clear
12:30 PM 42.8 °F 38.0 °F 26.6 °F 53% 30.15 in - NE 8.1 mph - N/A   Clear
1:00 PM 43 °F - 27 °F 40% 30.20 in 25 mi NE 8.9 mph - -   Clear
1:00 PM 42.8 °F 38.0 °F 26.6 °F 53% 30.15 in - NE 8.1 mph - N/A   Clear
1:30 PM 42.8 °F 40.1 °F 23.0 °F 46% 30.15 in - NNE 4.6 mph - N/A   Clear
2:00 PM 44 °F - 24 °F 33% 30.18 in 28 mi 4.5 mph - -   Clear
2:00 PM 44.6 °F 43.1 °F 24.8 °F 46% 30.15 in - NNE 3.5 mph - N/A   Clear
2:30 PM 44.6 °F 43.1 °F 24.8 °F 46% 30.12 in - NE 3.5 mph - N/A   Clear
3:00 PM 45 °F - 22 °F 27% 30.16 in 28 mi 4.5 mph - -  
3:00 PM 44.6 °F - 23.0 °F 43% 30.12 in - Variable 2.3 mph - N/A   Clear
3:30 PM 44.6 °F - 23.0 °F 43% 30.12 in - Variable 2.3 mph - N/A   Clear
4:00 PM 42 °F - 25 °F 38% 30.15 in 28 mi NNE 4.5 mph - -  
4:00 PM 42.8 °F 41.1 °F 24.8 °F 49% 30.12 in - NNE 3.5 mph - N/A   Clear
4:30 PM 41.0 °F 38.0 °F 24.8 °F 53% 30.12 in - NNE 4.6 mph - N/A   Clear
5:00 PM 41 °F - 24 °F 37% 30.15 in 12 mi NNE 4.5 mph - -  
5:00 PM 41.0 °F 39.0 °F 24.8 °F 53% 30.09 in - NNE 3.5 mph - N/A   Clear
5:30 PM 37.4 °F - 23.0 °F 56% 30.12 in - NE 2.3 mph - N/A   Clear
6:00 PM 35 °F - 24 °F 54% 30.17 in 9 mi WSW 4.5 mph - -  
6:00 PM 32.0 °F 27.5 °F 24.8 °F 75% 30.12 in - WSW 4.6 mph - N/A   Clear
6:30 PM 28.4 °F 23.3 °F 23.0 °F 80% 30.12 in - SW 4.6 mph - N/A   Clear
7:00 PM 33 °F - 22 °F 52% 30.17 in 12 mi SW 8.9 mph - -  
7:00 PM 33.8 °F 27.7 °F 23.0 °F 65% 30.12 in - WSW 6.9 mph - N/A   Clear
7:30 PM 32.0 °F 22.5 °F 24.8 °F 75% 30.09 in - SW 12.7 mph - N/A   Clear
8:00 PM 31 °F - 23 °F 64% 30.17 in 19 mi SW 13.4 mph - -  
8:00 PM 30.2 °F 19.8 °F 24.8 °F 80% 30.12 in - SW 13.8 mph - N/A   Clear
8:30 PM 28.4 °F 18.5 °F 23.0 °F 80% 30.09 in - SW 11.5 mph - N/A   Clear
9:00 PM 33 °F - 23 °F 57% 30.17 in 19 mi WSW 13.4 mph - -  
9:00 PM 33.8 °F 24.3 °F 23.0 °F 65% 30.09 in - WSW 13.8 mph - N/A   Clear
9:30 PM 33.8 °F 24.8 °F 23.0 °F 65% 30.12 in - WSW 12.7 mph - N/A   Clear
10:00 PM 32 °F - 23 °F 59% 30.18 in 19 mi West 11.2 mph - -  
10:00 PM 32.0 °F 24.2 °F 23.0 °F 69% 30.12 in - West 9.2 mph - N/A   Clear
10:30 PM 30.2 °F 21.3 °F 23.0 °F 75% 30.12 in - WSW 10.4 mph - N/A   Clear
11:00 PM 30 °F - 24 °F 69% 30.18 in 19 mi West 8.9 mph - -  
11:00 PM 30.2 °F 21.3 °F 24.8 °F 80% 30.12 in - West 10.4 mph - N/A   Clear
11:30 PM 32.0 °F 23.0 °F 24.8 °F 75% 30.12 in - West 11.5 mph - N/A   Clear